Location: Burera
(21.3780°N, 81.9534°E)
Time: 11:16:45
(UTC+00:00)

Aureole 1 Rocket - Pass Details

Date: 13 August 2020
Orbit: 378 x 1379 km, 73.9° (Epoch: 21 September)

Event Time Altitude Azimuth Distance (km) Brightness Sun altitude
Rises 13:59:18 0° 183° (S) 3,293 6.6 -13.1°
Reaches altitude 10° 14:01:28 10° 179° (S) 2,501 5.9 -13.6°
Maximum altitude 14:07:16 61° 100° (E) 1,167 4.1 -14.8°
Drops below altitude 10° 14:14:41 10° 22° (NNE) 3,182 6.7 -16.4°
Sets 14:17:44 0° 19° (NNE) 4,256 7.4 -17.1°
